Simultaneous Nadir Overpasses (SNOs) Predictions

Prediction of SNOs between LANDSAT-8 and NOAA-19 Satellite Orbit:

Table of predicted SNOs for the next 14.0 days since TLE Epoch: 7/23/2022
Index Date (LANDSAT-8) Time (LANDSAT-8) Lat,Lon (LANDSAT-8) SZA (LANDSAT-8 ) Date (NOAA-19) Time (NOAA-19) Lat,Lon (NOAA-19) SZA (NOAA-19 ) Distance(km) Time Diff (sec)
1 07/23/2022 14:19:50 -80.82,-179.03 117.52 07/23/2022 14:19:22 -80.82,-178.93 117.52 1.64 28
2 07/23/2022 15:09:16 80.83, -11.30 62.50 07/23/2022 15:10:21 80.81, -11.38 62.51 2.01 65
3 07/25/2022 20:43:03 -80.81, 85.00 117.07 07/25/2022 20:43:16 -80.82, 85.13 117.04 2.83 13
4 07/28/2022 02:16:48 80.82,-178.28 63.46 07/28/2022 02:16:09 80.82,-178.20 63.46 1.49 39
5 07/28/2022 03:06:15 -80.82, -10.64 116.54 07/28/2022 03:07:09 -80.81, -10.49 116.50 2.68 54
6 07/30/2022 08:40:00 80.83, 86.07 64.02 07/30/2022 08:40:02 80.82, 85.92 64.00 2.86 2
7 08/01/2022 14:13:47 -80.81,-177.57 115.46 08/01/2022 14:12:58 -80.83,-177.40 115.46 3.36 49
8 08/01/2022 15:03:13 80.82, -9.92 64.55 08/01/2022 15:03:55 80.83, -10.01 64.57 1.88 42
9 08/03/2022 20:36:59 -80.83, 86.80 114.85 08/03/2022 20:36:51 -80.82, 86.85 114.85 0.95 8
10 08/06/2022 02:10:44 80.84,-176.53 65.77 08/06/2022 02:09:41 80.83,-176.39 65.76 2.80 63



Historial Predications of SNOs between LANDSAT-8 and NOAA-19
